Regional Weather Roundup
Issued by NWS

Home | Current Version | Previous Version | Graphics & Text | Print | Product List | Glossary On
Versions: 1 2 3 4 5 6 7 8 9 10 11 12 13 14 15 16 17 18 19 20 21 22 23 24 25 26 27 28 29 30 31 32 33 34 35 36 37 38 39 40 41 42 43 44 45 46 47 48 49 50
025
ASUS43 KLOT 040903
RWRIL

ILLINOIS REGIONAL WEATHER ROUNDUP
NATIONAL WEATHER SERVICE CHICAGO/ROMEOVILLE IL
400 AM CDT WED MAY 04 2016

NOTE: "FAIR" INDICATES FEW OR NO CLOUDS BELOW 12,000 FEET WITH NO
SIGNIFICANT WEATHER AND/OR OBSTRUCTIONS TO VISIBILITY.

* THESE STATIONS ARE NOT UNDER NWS QUALITY CONTROL. THEY ALSO MAY NOT
  REPORT WEATHER SUCH AS PRECIPITATION OR FOG.

ILZ001-002-007-009-015-016-024-041000-
NORTHWEST ILLINOIS

CITY           SKY/WX    TMP DP  RH WIND       PRES   REMARKS
MOLINE         FOG       47  44  90 CALM      29.70R VSB 1/4
STERLING*      CLEAR     46  46 100 NW6       29.70R
$$

ILZ003-004-008-010-011-017-018-041000-
NORTH CENTRAL ILLINOIS

CITY           SKY/WX    TMP DP  RH WIND       PRES   REMARKS
ROCKFORD       CLEAR     47  44  90 NW9       29.70R
FREEPORT*      CLEAR     43  42  96 NW6       29.72R
ROCHELLE*      CLEAR     44  43  98 W5        29.69R
DE KALB*       PTCLDY    45  44  96 NW9       29.67R
$$

ILZ005-006-012>014-019>023-041000-
NORTHEAST ILLINOIS

CITY           SKY/WX    TMP DP  RH WIND       PRES   REMARKS
CHICAGO-OHARE  CLOUDY    49  47  93 NW6       29.62S
CHICAGO-MIDWAY RAIN      50  47  89 E8        29.60F FOG
AURORA         CLOUDY    48  45  89 W6        29.66R
LANSING*       RAIN      50  48  92 N7        29.61F
WAUKEGAN       CLOUDY    47  46  97 N7        29.63S
DUPAGE AIRPORT CLOUDY    48  45  89 NW6       29.64R
WHEELING       CLOUDY    49  47  93 NW5       29.64S
NORTHERLY ISL    N/A     48  45  89 MISG        N/A
NORTHERLY ISL    N/A     48  45  89 MISG        N/A
$$

LMZ740>746-041000-
SOUTHERN LAKE MICHIGAN

STATION/POSITION SKY/WX   TEMP    WIND        PRES    VSBY  WAVE
                          AIR SEA DIR/SP/G                  HT/PER
                          (F)     (DEG/KT/KT) (MB)    (MI)  (FT/S)
SOUTHERN BUOY              45 41   10/ 14/ 16 1002.5          1/ 3
HARRISON CRIB              50     340/ 13/ 13   N/A
BURNHAM HARBOR             51     340/  7/ 20   N/A
CALUMET HARBOR             51     300/  5/ 11 1003.2R
BURNS HARBOR               52     250/ 13     1004.4R
MICHIGAN CITY              51     230/ 25/ 29   N/A
ST. JOSEPH                 52 49                N/A           2/ 3
$$

ILZ025>027-034>036-040-047-049-050-058-095>099-041000-
WEST-CENTRAL ILLINOIS

CITY           SKY/WX    TMP DP  RH WIND       PRES   REMARKS
QUINCY         LGT RAIN  57  43  59 W10       29.69F
MACOMB*        PTCLDY    50  47  90 NE8       29.72F
PITTSFIELD*    CLOUDY    56  46  70 SW10      29.70F
$$

ILZ028>032-037-038-041>044-048-051>054-059>061-041000-
CENTRAL ILLINOIS

CITY           SKY/WX    TMP DP  RH WIND       PRES   REMARKS
BLOOMINGTON    LGT RAIN  50  50 100 SW6       29.68F
DECATUR        RAIN      54  45  71 W7        29.72R
PEORIA         MOCLDY    49  47  93 SW5       29.68F
LINCOLN*       LGT RAIN  53  51  94 NW5       29.72R
SPRINGFIELD    RAIN      55  47  74 W8        29.70R
TAYLORVILLE    NOT AVBL
$$

ILZ033-039-045-046-055>057-062-063-041000-
EAST-CENTRAL ILLINOIS

CITY           SKY/WX    TMP DP  RH WIND       PRES   REMARKS
CHAMPAIGN      LGT RAIN  53  45  74 W16       29.70R
MATTOON        CLOUDY    54  43  66 SW12      29.69F
$$

ILZ079-100>102-041000-
SOUTHWEST ILLINOIS

CITY           SKY/WX    TMP DP  RH WIND       PRES   REMARKS
ALTON          CLOUDY    55  43  64 SW10      29.75F
BELLEVILLE     CLOUDY    53  45  72 SW9       29.76F
CAHOKIA*       CLOUDY    56  41  57 SW10      29.76F
SPARTA*        MOCLDY    52  44  75 SW8       29.81F
$$

ILZ064>066-069>071-074>076-080>082-084>086-088>090-092>094-041000-
SOUTH-CENTRAL ILLINOIS

CITY           SKY/WX    TMP DP  RH WIND       PRES   REMARKS
CARBONDALE     CLEAR     45  42  89 SW7       29.83F
EFFINGHAM*     CLOUDY    55  46  71 S13       29.75F
MT. VERNON     MOCLDY    48  41  76 S3        29.80F
SALEM*         CLOUDY    55  45  67 SW12      29.77F
$$

ILZ067-068-072-073-078-083-087-091-041000-
SOUTHEAST ILLINOIS

CITY           SKY/WX    TMP DP  RH WIND       PRES   REMARKS
LAWRENCEVILLE  CLOUDY    51  45  79 SW9       29.77F
FLORA*         CLOUDY    53  46  76 SW10      29.77F
HARRISBURG*    PTCLDY    49  46  90 CALM      29.83F
ROBINSON*      PTCLDY    51  44  78 SW12      29.76F
$$

ABBREVIATIONS USED IN REMARKS
   TC - TEMPERATURE IN CELSIUS
  WCI - WIND CHILL INDEX
   HX - HEAT INDEX
  VSB - VISIBILITY
$$





USA.gov is the U.S. government's official web portal to all federal, state and local government web resources and services.